Lid_Strength_Index
2 2 1 1 1 0 0 0 0 -0 -0 0 1 1 1 0 -0 -1 -1 -2 -1 -2 -2 -0 -0 -1 -1 -0 -1 -0 -0 0 -1 1 0 -0 -0 -1 -1 -1 -1 -1 -1
3 2 2 1 1 1 1 1 0 0 -0 0 0 -0 -0 -0 -0 -1 -2 -2 -1 -2 -1 -1 -1 -0 0 -1 -1 -1 0 0 -0 1 2 3 2 1 -0 -1 -1 -1 -1
3 3 2 2 1 1 1 1 0 0 -0 -0 -0 -0 -0 -0 0 -0 -0 -1 -2 -2 -2 -1 -1 -1 -1 -0 -1 -1 -0 1 -0 -0 2 4 4 2 1 0 -0 -1 -1
3 3 2 2 2 1 1 1 0 0 0 -0 0 0 1 1 1 0 -1 -1 -2 -1 -1 -1 -2 -1 -1 -1 -1 -1 -1 -0 1 -0 0 0 1 4 4 1 0 -0 -0
3 3 2 2 1 1 1 1 1 0 0 0 0 1 1 0 0 -0 -1 -1 -1 -2 -1 -2 -1 -1 -1 -1 -1 -1 -1 -0 0 0 1 0 1 1 2 4 2 0 -0
3 2 2 1 2 1 1 1 1 1 0 0 0 1 1 1 1 0 1 0 -0 -0 -1 -1 -1 -1 -1 -1 -1 -1 -1 -1 -0 0 0 1 2 2 2 3 2 2 1
3 3 2 2 2 2 1 1 1 1 1 1 1 0 1 0 0 0 1 0 0 0 -0 -1 -1 -0 -1 -1 -1 -1 -1 -1 -0 -1 1 -0 0 0 1 2 2 2 1
3 3 2 2 2 2 1 1 1 1 1 1 1 0 0 1 1 0 0 0 0 -0 -1 -1 -1 -1 -1 -1 -1 -1 -0 -1 -0 -1 -1 0 0 -0 0 1 2 3 2
3 3 2 2 2 2 1 1 1 1 1 1 1 1 0 0 0 -0 -0 0 -1 -0 -1 -1 -1 -1 -1 -1 -1 -0 -1 -1 -1 -1 -1 0 -0 -0 -0 -0 0 2 4
3 3 2 2 2 1 1 1 1 1 1 1 1 1 1 0 0 -0 0 -0 -0 -1 -0 -0 -0 -0 -0 -0 -0 -0 -1 -1 -0 -0 -1 -1 -0 -0 -0 -0 -0 1 2
2 2 2 2 2 1 1 1 1 1 1 1 1 1 1 0 0 0 0 0 -0 -0 -0 -0 -0 -0 0 -0 -0 -0 -1 -0 -0 -0 -0 -0 -1 0 0 -0 0 1 1
2 2 2 2 2 2 2 1 1 1 1 1 1 1 1 0 1 1 0 0 0 -0 -0 -0 -0 0 -0 -0 0 0 -0 0 0 0 0 0 0 -0 -0 0 0 0 -0
2 2 2 2 2 2 2 2 1 1 1 1 1 1 1 1 1 1 0 0 0 0 -0 -0 0 0 0 0 0 0 0 0 0 -0 0 0 -0 0 0 0 0 0 0
2 2 2 2 2 2 2 2 1 1 1 1 1 1 1 1 1 1 0 0 0 0 0 -0 0 -0 0 -0 0 -0 0 -0 0 -0 -0 -0 -0 0 -0 0 0 0 1
2 3 3 2 2 2 2 2 1 1 1 1 1 1 1 1 1 1 1 0 0 0 -0 0 0 -0 -0 0 0 -0 0 0 0 -0 -0 -0 -0 0 -0 0 0 0 1
2 2 2 2 2 2 2 2 2 1 1 1 1 1 1 1 1 1 1 1 0 0 0 0 0 0 0 2 1 0 0 0 0 1 0 -0 -0 -0 0 0 0 0 1
2 2 3 3 2 2 2 2 2 1 1 1 1 1 1 1 1 1 1 1 1 0 1 0 0 0 0 4 3 1 -0 0 0 0 0 1 0 -0 0 0 0 1 1
2 2 2 2 2 2 2 1 1 1 2 2 2 1 1 2 1 1 1 1 1 1 1 1 0 0 0 5 4 2 -0 0 0 -0 -0 0 0 0 0 1 1 1 0
2 2 1 2 2 2 1 2 2 2 2 2 2 2 1 2 1 2 2 1 1 1 1 0 0 1 1 6 6 3 0 1 0 0 0 -0 0 1 1 1 2 1 1
2 2 1 1 2 2 1 2 2 2 2 2 2 1 1 1 1 1 1 1 1 1 1 1 0 2 1 5 6 3 0 1 1 0 0 2 0 3 3 1 1 2 1
2 1 1 2 2 1 1 2 2 3 2 1 1 1 1 1 1 1 1 1 1 1 1 1 1 1 1 0 7 7 0 1 1 1 1 1 3 4 5 4 0 1 1
2 2 2 2 2 1 2 2 3 2 1 1 1 1 1 1 1 1 1 1 2 2 2 2 2 1 0 3 7 7 6 3 1 1 1 1 5 6 6 4 2 4 4
2 2 2 2 2 2 2 3 2 1 1 1 2 2 1 1 1 2 2 2 2 2 2 2 2 2 0 0 8 8 7 5 1 1 4 7 7 7 5 5 3 4 1
3 2 3 3 3 2 2 2 2 1 1 2 2 2 2 2 1 1 2 2 2 2 2 3 2 2 1 1 0 1 3 4 2 4 2 2 3 3 4 1 2 1 0
2 2 3 3 3 2 2 1 1 1 2 2 2 2 2 2 2 4 5 2 2 4 2 2 2 2 2 1 5 4 1 1 2 1 0 1 1 1 1 1 1 1 1
2 3 3 3 3 2 2 2 1 1 2 2 2 2 2 2 2 2 4 13 12 13 12 10 4 3 8 11 12 11 11 9 9 1 1 1 1 2 1 2 2 1 0